TimeCDT,TemperatureF,Dew PointF,Humidity,Sea Level PressureIn,VisibilityMPH,Wind Direction,Wind SpeedMPH,Gust SpeedMPH,PrecipitationIn,Events,Conditions,WindDirDegrees,DateUTC
12:15 AM,68.0,64.4,88,29.89,10.0,NE,3.5,-,N/A,,Scattered Clouds,50,2013-05-02 05:15:00
12:35 AM,68.0,64.4,88,29.89,10.0,NE,3.5,-,N/A,,Clear,50,2013-05-02 05:35:00
12:55 AM,68.0,64.4,88,29.90,10.0,Calm,Calm,-,N/A,,Scattered Clouds,0,2013-05-02 05:55:00
1:15 AM,68.0,64.4,88,29.90,10.0,Calm,Calm,-,N/A,,Mostly Cloudy,0,2013-05-02 06:15:00
1:35 AM,66.2,64.4,94,29.90,10.0,Calm,Calm,-,N/A,,Mostly Cloudy,0,2013-05-02 06:35:00
1:55 AM,66.2,64.4,94,29.90,10.0,Calm,Calm,-,N/A,,Scattered Clouds,0,2013-05-02 06:55:00
2:15 AM,66.2,64.4,94,29.89,10.0,Calm,Calm,-,N/A,,Mostly Cloudy,0,2013-05-02 07:15:00
2:35 AM,64.4,64.4,100,29.89,10.0,NNW,3.5,-,N/A,,Mostly Cloudy,340,2013-05-02 07:35:00
2:55 AM,64.4,64.4,100,29.89,10.0,North,5.8,-,N/A,,Scattered Clouds,350,2013-05-02 07:55:00
3:15 AM,64.4,64.4,100,29.90,10.0,North,8.1,-,N/A,,Clear,350,2013-05-02 08:15:00
3:35 AM,64.4,64.4,100,29.90,10.0,NNW,4.6,-,N/A,,Clear,340,2013-05-02 08:35:00
3:55 AM,64.4,64.4,100,29.90,10.0,North,5.8,-,N/A,,Clear,10,2013-05-02 08:55:00
4:15 AM,64.4,64.4,100,29.91,10.0,North,5.8,-,N/A,,Clear,350,2013-05-02 09:15:00
4:35 AM,64.4,62.6,94,29.91,10.0,North,4.6,-,N/A,,Clear,360,2013-05-02 09:35:00
4:55 AM,64.4,62.6,94,29.91,10.0,Calm,Calm,-,N/A,,Scattered Clouds,0,2013-05-02 09:55:00
5:15 AM,62.6,62.6,100,29.91,10.0,North,3.5,-,N/A,,Clear,350,2013-05-02 10:15:00
5:35 AM,62.6,62.6,100,29.92,10.0,NW,3.5,-,N/A,,Scattered Clouds,310,2013-05-02 10:35:00
5:55 AM,62.6,62.6,100,29.92,10.0,WNW,3.5,-,N/A,,Scattered Clouds,290,2013-05-02 10:55:00
6:15 AM,62.6,62.6,100,29.92,7.0,NNW,5.8,-,N/A,,Clear,340,2013-05-02 11:15:00
6:35 AM,62.6,62.6,100,29.93,10.0,NNW,6.9,-,N/A,,Scattered Clouds,340,2013-05-02 11:35:00
6:55 AM,62.6,62.6,100,29.93,0.8,North,6.9,-,N/A,,Overcast,350,2013-05-02 11:55:00
7:15 AM,64.4,64.4,100,29.94,1.2,North,6.9,-,N/A,,Overcast,360,2013-05-02 12:15:00
7:35 AM,64.4,64.4,100,29.95,10.0,North,4.6,-,N/A,,Overcast,350,2013-05-02 12:35:00
7:55 AM,66.2,64.4,94,29.95,10.0,North,4.6,-,N/A,,Scattered Clouds,350,2013-05-02 12:55:00
8:15 AM,68.0,64.4,88,29.96,10.0,North,5.8,-,N/A,,Scattered Clouds,350,2013-05-02 13:15:00
8:35 AM,68.0,64.4,88,29.96,10.0,North,6.9,-,N/A,,Mostly Cloudy,350,2013-05-02 13:35:00
8:55 AM,68.0,66.2,94,29.96,10.0,North,11.5,-,N/A,,Overcast,350,2013-05-02 13:55:00
9:15 AM,68.0,66.2,94,29.96,10.0,North,12.7,-,N/A,,Overcast,360,2013-05-02 14:15:00
9:35 AM,68.0,66.2,94,29.97,4.0,North,6.9,-,N/A,Rain,Light Rain,350,2013-05-02 14:35:00
9:55 AM,68.0,66.2,94,29.97,3.0,North,6.9,-,N/A,,Drizzle,360,2013-05-02 14:55:00
10:15 AM,68.0,66.2,94,29.98,10.0,North,10.4,-,N/A,,Overcast,10,2013-05-02 15:15:00
10:35 AM,69.8,66.2,88,29.98,10.0,North,9.2,-,N/A,,Overcast,10,2013-05-02 15:35:00
10:55 AM,69.8,66.2,88,29.98,10.0,North,12.7,-,N/A,,Overcast,360,2013-05-02 15:55:00
11:35 AM,71.6,64.4,78,29.98,10.0,North,10.4,-,0.01,,Overcast,360,2013-05-02 16:35:00
11:55 AM,71.6,64.4,78,29.98,10.0,NNW,9.2,-,0.01,,Overcast,340,2013-05-02 16:55:00
12:15 PM,71.6,64.4,78,29.98,10.0,NNW,13.8,-,N/A,,Overcast,340,2013-05-02 17:15:00
12:35 PM,73.4,64.4,73,29.98,10.0,North,9.2,-,N/A,,Overcast,10,2013-05-02 17:35:00
12:55 PM,71.6,62.6,73,29.99,10.0,North,10.4,-,N/A,,Overcast,350,2013-05-02 17:55:00
1:15 PM,71.6,62.6,73,29.99,10.0,NNW,9.2,-,N/A,,Overcast,330,2013-05-02 18:15:00
1:35 PM,71.6,64.4,78,30.00,10.0,NW,12.7,17.3,N/A,,Overcast,320,2013-05-02 18:35:00
1:55 PM,73.4,62.6,69,30.00,10.0,NNW,10.4,-,N/A,,Overcast,330,2013-05-02 18:55:00
2:15 PM,71.6,64.4,78,30.00,10.0,NW,9.2,-,N/A,,Overcast,310,2013-05-02 19:15:00
2:35 PM,73.4,64.4,73,30.00,10.0,WNW,12.7,-,N/A,,Overcast,300,2013-05-02 19:35:00
2:55 PM,73.4,64.4,73,29.99,10.0,NNW,13.8,18.4,N/A,,Overcast,330,2013-05-02 19:55:00
3:15 PM,73.4,64.4,73,29.98,10.0,NW,12.7,17.3,N/A,,Overcast,320,2013-05-02 20:15:00
3:35 PM,73.4,64.4,73,29.98,10.0,NW,11.5,17.3,N/A,,Overcast,320,2013-05-02 20:35:00
3:55 PM,73.4,64.4,73,29.98,10.0,NW,12.7,23.0,N/A,,Overcast,310,2013-05-02 20:55:00
4:15 PM,75.2,64.4,69,29.97,10.0,NNW,11.5,17.3,N/A,,Mostly Cloudy,330,2013-05-02 21:15:00
4:35 PM,75.2,64.4,69,29.96,10.0,NW,12.7,18.4,N/A,,Mostly Cloudy,320,2013-05-02 21:35:00
4:55 PM,75.2,64.4,69,29.96,10.0,North,11.5,19.6,N/A,,Overcast,350,2013-05-02 21:55:00
5:15 PM,77.0,64.4,65,29.96,10.0,NNW,13.8,18.4,N/A,,Mostly Cloudy,330,2013-05-02 22:15:00
5:35 PM,73.4,64.4,73,29.96,10.0,NNW,13.8,18.4,N/A,,Mostly Cloudy,340,2013-05-02 22:35:00
5:55 PM,73.4,64.4,73,29.96,10.0,NNW,10.4,-,N/A,,Overcast,330,2013-05-02 22:55:00
6:15 PM,75.2,64.4,69,29.96,10.0,NNW,10.4,-,N/A,,Overcast,340,2013-05-02 23:15:00
6:35 PM,73.4,64.4,73,29.96,10.0,NNW,12.7,16.1,N/A,,Overcast,330,2013-05-02 23:35:00
6:55 PM,73.4,62.6,69,29.97,10.0,NW,9.2,18.4,N/A,,Mostly Cloudy,320,2013-05-02 23:55:00
7:15 PM,73.4,62.6,69,29.97,10.0,NNW,9.2,-,N/A,,Mostly Cloudy,330,2013-05-03 00:15:00
7:35 PM,71.6,62.6,73,29.98,10.0,NNW,8.1,-,N/A,,Overcast,330,2013-05-03 00:35:00
7:55 PM,69.8,64.4,83,29.99,10.0,NW,17.3,27.6,N/A,Rain,Light Rain,310,2013-05-03 00:55:00
8:15 PM,64.4,62.6,94,30.01,5.0,WNW,20.7,27.6,0.01,Rain,Light Rain,290,2013-05-03 01:15:00
8:35 PM,60.8,59.0,94,30.03,5.0,WNW,23.0,32.2,0.03,Rain,Rain,300,2013-05-03 01:35:00
8:55 PM,60.8,59.0,94,30.04,7.0,NW,19.6,27.6,0.03,,Overcast,310,2013-05-03 01:55:00
9:15 PM,59.0,57.2,94,30.05,10.0,NW,19.6,27.6,N/A,,Overcast,310,2013-05-03 02:15:00
9:35 PM,59.0,55.4,88,30.06,10.0,NW,19.6,27.6,N/A,,Overcast,320,2013-05-03 02:35:00
9:55 PM,59.0,55.4,88,30.07,10.0,NW,15.0,25.3,N/A,,Overcast,320,2013-05-03 02:55:00
10:15 PM,59.0,53.6,82,30.07,10.0,NNW,21.9,28.8,N/A,,Overcast,330,2013-05-03 03:15:00
10:35 PM,57.2,53.6,88,30.07,10.0,NW,20.7,27.6,N/A,,Overcast,320,2013-05-03 03:35:00
10:55 PM,57.2,53.6,88,30.08,10.0,NW,17.3,21.9,N/A,,Overcast,320,2013-05-03 03:55:00
11:15 PM,57.2,53.6,88,30.08,10.0,NW,13.8,19.6,N/A,,Overcast,320,2013-05-03 04:15:00
11:35 PM,55.4,51.8,88,30.08,10.0,NW,23.0,31.1,N/A,,Overcast,320,2013-05-03 04:35:00
11:55 PM,55.4,51.8,88,30.08,10.0,NNW,17.3,27.6,N/A,,Overcast,330,2013-05-03 04:55:00